QPF
0.00 0.00 0.00 0.00 0.00 0.00 0.00 0.00 0.00 0.00 0.00 0.00 0.00 0.00 0.00 0.00 0.01 0.02 0.01 0.00 0.00 0.00 0.00 0.00 0.00 0.00 0.00 0.00 0.00 0.00 0.00 0.00 0.00 0.00 0.00 0.00 0.00 0.00 0.00 0.00 0.00 0.00 0.00 0.00 0.00 0.00 0.00 0.00 0.00
0.00 0.00 0.00 0.00 0.00 0.00 0.00 0.00 0.00 0.00 0.00 0.00 0.00 0.00 0.01 0.00 0.00 0.01 0.01 0.00 0.00 0.00 0.00 0.00 0.00 0.00 0.00 0.00 0.00 0.00 0.00 0.00 0.00 0.00 0.00 0.00 0.00 0.00 0.00 0.00 0.00 0.00 0.00 0.00 0.00 0.00 0.00 0.00 0.00
0.00 0.00 0.00 0.00 0.00 0.00 0.00 0.00 0.00 0.00 0.00 0.00 0.00 0.01 0.01 0.00 0.01 0.01 0.01 0.00 0.00 0.00 0.00 0.00 0.00 0.00 0.00 0.00 0.00 0.00 0.00 0.00 0.00 0.00 0.00 0.00 0.00 0.00 0.00 0.00 0.00 0.00 0.00 0.00 0.00 0.00 0.00 0.00 0.00
0.00 0.00 0.00 0.00 0.00 0.00 0.00 0.00 0.00 0.00 0.00 0.00 0.00 0.00 0.00 0.00 0.01 0.01 0.01 0.01 0.00 0.01 0.01 0.00 0.00 0.00 0.00 0.00 0.00 0.00 0.00 0.00 0.00 0.00 0.00 0.00 0.00 0.00 0.00 0.00 0.00 0.00 0.00 0.00 0.00 0.00 0.00 0.00 0.00
0.00 0.00 0.00 0.00 0.00 0.00 0.00 0.00 0.00 0.00 0.00 0.00 0.00 0.00 0.00 0.00 0.01 0.01 0.01 0.02 0.02 0.01 0.01 0.01 0.00 0.00 0.00 0.00 0.00 0.00 0.00 0.00 0.00 0.00 0.00 0.00 0.00 0.00 0.00 0.00 0.00 0.00 0.00 0.01 0.01 0.00 0.00 0.00 0.00
0.00 0.00 0.00 0.00 0.00 0.00 0.00 0.00 0.00 0.00 0.00 0.00 0.00 0.00 0.00 0.01 0.01 0.01 0.01 0.03 0.01 0.01 0.01 0.01 0.01 0.00 0.00 0.00 0.00 0.00 0.00 0.00 0.00 0.00 0.00 0.00 0.00 0.01 0.01 0.01 0.01 0.01 0.01 0.01 0.01 0.00 0.00 0.00 0.01
0.00 0.00 0.00 0.00 0.00 0.00 0.00 0.00 0.00 0.00 0.00 0.00 0.00 0.00 0.00 0.01 0.01 0.00 0.01 0.02 0.01 0.02 0.02 0.01 0.01 0.00 0.00 0.00 0.00 0.00 0.00 0.00 0.01 0.01 0.01 0.00 0.00 0.01 0.01 0.01 0.01 0.01 0.01 0.01 0.01 0.00 0.00 0.00 0.01
0.00 0.00 0.00 0.00 0.00 0.00 0.00 0.00 0.00 0.00 0.00 0.00 0.00 0.00 0.00 0.00 0.00 0.00 0.01 0.01 0.01 0.02 0.02 0.02 0.01 0.00 0.00 0.00 0.01 0.01 0.01 0.01 0.01 0.01 0.01 0.01 0.01 0.01 0.01 0.01 0.01 0.01 0.01 0.01 0.00 0.00 0.00 0.00 0.00
0.00 0.00 0.00 0.00 0.00 0.00 0.00 0.00 0.00 0.00 0.00 0.00 0.00 0.00 0.00 0.00 0.00 0.01 0.03 0.04 0.05 0.05 0.04 0.03 0.03 0.02 0.02 0.01 0.01 0.01 0.01 0.02 0.01 0.01 0.01 0.01 0.01 0.02 0.02 0.01 0.01 0.01 0.01 0.01 0.01 0.00 0.00 0.00 0.00
0.00 0.00 0.00 0.00 0.00 0.00 0.00 0.00 0.00 0.00 0.00 0.00 0.00 0.00 0.00 0.00 0.00 0.02 0.02 0.03 0.05 0.07 0.08 0.06 0.04 0.04 0.03 0.02 0.02 0.01 0.01 0.01 0.01 0.02 0.03 0.03 0.04 0.04 0.03 0.02 0.02 0.02 0.02 0.01 0.01 0.01 0.01 0.00 0.01
0.00 0.00 0.00 0.00 0.00 0.00 0.00 0.00 0.00 0.00 0.00 0.00 0.00 0.00 0.00 0.00 0.00 0.01 0.01 0.02 0.04 0.06 0.06 0.04 0.06 0.07 0.05 0.04 0.05 0.05 0.04 0.04 0.04 0.04 0.05 0.07 0.07 0.05 0.03 0.03 0.03 0.03 0.03 0.03 0.02 0.01 0.01 0.01 0.03
0.00 0.00 0.00 0.00 0.00 0.00 0.00 0.00 0.00 0.00 0.00 0.00 0.00 0.00 0.00 0.00 0.01 0.01 0.01 0.02 0.04 0.06 0.05 0.05 0.05 0.08 0.11 0.13 0.13 0.16 0.18 0.10 0.06 0.06 0.07 0.11 0.14 0.11 0.07 0.06 0.05 0.06 0.07 0.07 0.05 0.03 0.03 0.02 0.03
0.00 0.00 0.00 0.00 0.00 0.00 0.00 0.00 0.00 0.00 0.00 0.00 0.00 0.00 0.00 0.01 0.01 0.02 0.02 0.03 0.04 0.05 0.07 0.07 0.08 0.09 0.12 0.20 0.23 0.22 0.23 0.18 0.10 0.09 0.09 0.10 0.10 0.09 0.09 0.07 0.08 0.08 0.08 0.09 0.08 0.06 0.05 0.04 0.04
0.00 0.00 0.00 0.00 0.00 0.00 0.00 0.00 0.00 0.00 0.00 0.00 0.00 0.00 0.01 0.01 0.02 0.02 0.03 0.03 0.04 0.05 0.08 0.08 0.09 0.10 0.11 0.13 0.16 0.18 0.16 0.15 0.13 0.10 0.14 0.12 0.12 0.14 0.13 0.10 0.10 0.09 0.09 0.10 0.08 0.08 0.08 0.07 0.07
0.00 0.00 0.00 0.00 0.00 0.00 0.00 0.00 0.00 0.01 0.01 0.01 0.01 0.01 0.02 0.03 0.03 0.04 0.03 0.03 0.04 0.07 0.08 0.07 0.09 0.12 0.15 0.15 0.14 0.16 0.14 0.13 0.13 0.17 0.19 0.16 0.14 0.14 0.11 0.10 0.10 0.08 0.07 0.08 0.10 0.10 0.09 0.09 0.09
0.00 0.00 0.00 0.00 0.00 0.00 0.00 0.00 0.01 0.01 0.01 0.01 0.01 0.02 0.03 0.04 0.05 0.04 0.03 0.04 0.05 0.07 0.09 0.12 0.14 0.20 0.21 0.20 0.21 0.24 0.23 0.18 0.17 0.19 0.21 0.22 0.21 0.15 0.14 0.13 0.11 0.09 0.09 0.10 0.12 0.13 0.12 0.11 0.11
0.00 0.00 0.00 0.00 0.00 0.00 0.00 0.00 0.01 0.01 0.01 0.01 0.01 0.02 0.03 0.04 0.04 0.05 0.04 0.05 0.07 0.08 0.10 0.13 0.18 0.21 0.23 0.22 0.26 0.32 0.38 0.33 0.27 0.21 0.18 0.17 0.17 0.15 0.15 0.14 0.13 0.11 0.11 0.11 0.10 0.10 0.10 0.10 0.11
0.00 0.00 0.00 0.00 0.00 0.00 0.00 0.00 0.00 0.01 0.01 0.02 0.01 0.02 0.02 0.03 0.04 0.05 0.05 0.06 0.07 0.09 0.10 0.14 0.17 0.17 0.17 0.16 0.20 0.26 0.29 0.27 0.26 0.25 0.24 0.23 0.22 0.22 0.21 0.20 0.17 0.13 0.11 0.09 0.07 0.08 0.09 0.09 0.09
0.00 0.00 0.00 0.00 0.00 0.00 0.00 0.00 0.01 0.01 0.02 0.02 0.02 0.03 0.03 0.03 0.04 0.03 0.04 0.05 0.05 0.07 0.10 0.12 0.13 0.14 0.15 0.15 0.17 0.18 0.22 0.25 0.23 0.21 0.22 0.22 0.22 0.20 0.19 0.19 0.18 0.13 0.11 0.09 0.08 0.09 0.09 0.09 0.09
0.00 0.00 0.00 0.00 0.00 0.01 0.01 0.01 0.02 0.03 0.03 0.03 0.03 0.03 0.03 0.04 0.04 0.04 0.04 0.04 0.05 0.06 0.07 0.08 0.11 0.14 0.17 0.18 0.19 0.22 0.24 0.23 0.23 0.22 0.20 0.20 0.23 0.21 0.17 0.17 0.16 0.14 0.13 0.11 0.10 0.09 0.09 0.09 0.09
0.00 0.00 0.00 0.00 0.01 0.02 0.02 0.03 0.03 0.03 0.03 0.04 0.04 0.03 0.04 0.04 0.04 0.04 0.03 0.03 0.04 0.05 0.06 0.07 0.09 0.12 0.19 0.21 0.26 0.30 0.32 0.28 0.28 0.26 0.23 0.22 0.23 0.24 0.24 0.18 0.15 0.14 0.12 0.11 0.10 0.09 0.10 0.08 0.08
0.00 0.00 0.00 0.00 0.00 0.01 0.02 0.04 0.04 0.04 0.05 0.04 0.05 0.06 0.05 0.04 0.03 0.02 0.02 0.02 0.03 0.04 0.05 0.07 0.09 0.12 0.16 0.17 0.23 0.30 0.37 0.36 0.34 0.31 0.26 0.21 0.20 0.22 0.23 0.19 0.15 0.14 0.13 0.11 0.10 0.10 0.10 0.10 0.08
0.00 0.00 0.00 0.00 0.00 0.01 0.02 0.04 0.04 0.05 0.05 0.04 0.04 0.05 0.04 0.03 0.03 0.03 0.02 0.02 0.02 0.03 0.06 0.08 0.09 0.11 0.11 0.13 0.15 0.18 0.22 0.24 0.29 0.31 0.31 0.28 0.23 0.21 0.20 0.19 0.19 0.18 0.16 0.12 0.09 0.09 0.09 0.08 0.07
0.00 0.00 0.00 0.00 0.01 0.02 0.01 0.03 0.06 0.07 0.06 0.06 0.04 0.04 0.04 0.03 0.03 0.03 0.03 0.02 0.02 0.03 0.05 0.09 0.11 0.11 0.11 0.12 0.14 0.14 0.18 0.23 0.27 0.30 0.32 0.33 0.29 0.23 0.18 0.16 0.16 0.16 0.14 0.11 0.09 0.09 0.09 0.08 0.07
0.00 0.00 0.01 0.02 0.02 0.02 0.01 0.03 0.04 0.04 0.06 0.05 0.04 0.03 0.03 0.02 0.02 0.03 0.03 0.03 0.03 0.03 0.06 0.09 0.11 0.11 0.10 0.12 0.14 0.15 0.20 0.25 0.26 0.26 0.25 0.26 0.28 0.27 0.24 0.19 0.16 0.15 0.15 0.14 0.10 0.08 0.07 0.07 0.06
0.00 0.00 0.01 0.01 0.01 0.02 0.04 0.05 0.03 0.03 0.06 0.05 0.04 0.03 0.02 0.02 0.02 0.02 0.02 0.04 0.04 0.04 0.06 0.08 0.09 0.12 0.11 0.11 0.13 0.16 0.18 0.19 0.19 0.19 0.17 0.19 0.20 0.20 0.19 0.16 0.15 0.13 0.13 0.12 0.09 0.06 0.04 0.03 0.03
0.00 0.00 0.00 0.00 0.01 0.03 0.06 0.04 0.03 0.04 0.07 0.04 0.03 0.03 0.03 0.03 0.02 0.02 0.03 0.03 0.04 0.05 0.05 0.06 0.07 0.08 0.08 0.09 0.10 0.13 0.15 0.15 0.14 0.13 0.12 0.12 0.11 0.10 0.10 0.09 0.10 0.08 0.07 0.06 0.04 0.03 0.03 0.02 0.02
0.00 0.00 0.01 0.02 0.02 0.03 0.04 0.04 0.04 0.04 0.11 0.12 0.06 0.04 0.04 0.03 0.02 0.02 0.04 0.04 0.05 0.06 0.05 0.06 0.05 0.07 0.09 0.11 0.12 0.13 0.14 0.14 0.14 0.13 0.12 0.10 0.08 0.07 0.06 0.06 0.06 0.06 0.05 0.04 0.03 0.02 0.02 0.02 0.02
0.00 0.00 0.01 0.01 0.02 0.02 0.04 0.05 0.03 0.03 0.06 0.11 0.10 0.05 0.04 0.04 0.03 0.03 0.04 0.04 0.05 0.06 0.05 0.05 0.05 0.06 0.08 0.10 0.11 0.11 0.09 0.08 0.09 0.11 0.11 0.10 0.08 0.07 0.06 0.05 0.05 0.04 0.03 0.03 0.02 0.02 0.01 0.01 0.01
0.00 0.00 0.01 0.02 0.03 0.03 0.03 0.04 0.03 0.04 0.06 0.07 0.07 0.04 0.04 0.04 0.03 0.03 0.03 0.04 0.06 0.06 0.06 0.05 0.05 0.06 0.07 0.08 0.08 0.10 0.07 0.06 0.06 0.06 0.07 0.08 0.07 0.07 0.06 0.05 0.05 0.04 0.02 0.02 0.01 0.01 0.01 0.01 0.01
MSLP
1011.81 1012.02 1012.28 1012.51 1012.65 1012.68 1012.60 1012.44 1012.24 1012.07 1011.96 1011.91 1011.90 1011.89 1011.82 1011.65 1011.37 1011.00 1010.62 1010.31 1010.15 1010.21 1010.50 1011.00 1011.63 1012.32 1012.95 1013.46 1013.82 1014.06 1014.21 1014.33 1014.51 1014.77 1015.12 1015.54 1015.97 1016.36 1016.66 1016.85 1016.95 1016.99 1017.01 1017.05 1017.15 1017.30 1017.48 1017.66 1017.81
1011.78 1012.02 1012.28 1012.48 1012.59 1012.56 1012.41 1012.17 1011.90 1011.65 1011.45 1011.32 1011.25 1011.18 1011.09 1010.93 1010.69 1010.40 1010.11 1009.90 1009.85 1009.99 1010.36 1010.91 1011.60 1012.31 1012.98 1013.54 1013.95 1014.24 1014.45 1014.63 1014.84 1015.11 1015.46 1015.84 1016.22 1016.55 1016.79 1016.94 1017.01 1017.04 1017.08 1017.16 1017.30 1017.50 1017.73 1017.94 1018.09
1011.83 1012.08 1012.32 1012.48 1012.52 1012.43 1012.21 1011.90 1011.54 1011.20 1010.92 1010.71 1010.56 1010.45 1010.33 1010.17 1009.98 1009.77 1009.58 1009.47 1009.52 1009.76 1010.20 1010.82 1011.54 1012.30 1013.01 1013.62 1014.09 1014.45 1014.71 1014.95 1015.20 1015.48 1015.81 1016.15 1016.48 1016.75 1016.94 1017.05 1017.11 1017.15 1017.21 1017.34 1017.53 1017.77 1018.03 1018.26 1018.42
1011.93 1012.17 1012.37 1012.49 1012.47 1012.31 1012.02 1011.64 1011.22 1010.80 1010.44 1010.15 1009.93 1009.77 1009.63 1009.49 1009.34 1009.20 1009.10 1009.11 1009.26 1009.59 1010.10 1010.76 1011.52 1012.31 1013.05 1013.70 1014.23 1014.64 1014.97 1015.25 1015.53 1015.82 1016.13 1016.44 1016.73 1016.95 1017.11 1017.20 1017.26 1017.32 1017.42 1017.60 1017.83 1018.11 1018.40 1018.63 1018.77
1012.04 1012.26 1012.43 1012.49 1012.42 1012.21 1011.87 1011.43 1010.95 1010.48 1010.05 1009.70 1009.43 1009.23 1009.07 1008.95 1008.85 1008.78 1008.78 1008.88 1009.12 1009.52 1010.08 1010.77 1011.55 1012.35 1013.10 1013.77 1014.33 1014.78 1015.15 1015.47 1015.78 1016.08 1016.38 1016.67 1016.93 1017.13 1017.28 1017.38 1017.46 1017.56 1017.70 1017.92 1018.18 1018.48 1018.77 1018.98 1019.09
1012.13 1012.33 1012.45 1012.47 1012.36 1012.11 1011.74 1011.28 1010.77 1010.26 1009.79 1009.40 1009.09 1008.86 1008.70 1008.60 1008.54 1008.54 1008.62 1008.80 1009.11 1009.56 1010.14 1010.85 1011.62 1012.40 1013.14 1013.81 1014.38 1014.85 1015.24 1015.58 1015.90 1016.21 1016.51 1016.80 1017.05 1017.26 1017.42 1017.55 1017.67 1017.81 1018.00 1018.23 1018.52 1018.81 1019.07 1019.25 1019.32
1012.18 1012.34 1012.43 1012.41 1012.27 1012.01 1011.63 1011.16 1010.64 1010.12 1009.64 1009.23 1008.90 1008.66 1008.51 1008.43 1008.41 1008.47 1008.61 1008.85 1009.20 1009.67 1010.26 1010.93 1011.67 1012.42 1013.13 1013.77 1014.33 1014.80 1015.20 1015.55 1015.88 1016.19 1016.49 1016.78 1017.05 1017.29 1017.48 1017.66 1017.83 1018.01 1018.22 1018.47 1018.74 1019.01 1019.22 1019.36 1019.38
1012.17 1012.30 1012.35 1012.31 1012.16 1011.89 1011.51 1011.05 1010.54 1010.03 1009.55 1009.13 1008.81 1008.57 1008.43 1008.38 1008.40 1008.50 1008.68 1008.94 1009.31 1009.78 1010.34 1010.98 1011.67 1012.36 1013.03 1013.63 1014.17 1014.63 1015.02 1015.37 1015.70 1016.02 1016.33 1016.63 1016.92 1017.19 1017.44 1017.66 1017.88 1018.10 1018.33 1018.57 1018.81 1019.03 1019.18 1019.26 1019.24
1012.13 1012.22 1012.24 1012.18 1012.02 1011.74 1011.38 1010.93 1010.44 1009.94 1009.47 1009.06 1008.74 1008.52 1008.40 1008.36 1008.41 1008.54 1008.74 1009.01 1009.37 1009.81 1010.33 1010.92 1011.55 1012.19 1012.81 1013.38 1013.89 1014.34 1014.73 1015.07 1015.40 1015.71 1016.03 1016.34 1016.66 1016.97 1017.26 1017.54 1017.80 1018.05 1018.29 1018.51 1018.71 1018.86 1018.95 1018.97 1018.91
1012.07 1012.12 1012.12 1012.03 1011.85 1011.58 1011.22 1010.79 1010.31 1009.82 1009.36 1008.96 1008.65 1008.45 1008.34 1008.32 1008.39 1008.53 1008.73 1009.00 1009.33 1009.73 1010.20 1010.73 1011.31 1011.90 1012.49 1013.03 1013.53 1013.97 1014.35 1014.69 1015.00 1015.31 1015.63 1015.96 1016.29 1016.64 1016.97 1017.29 1017.59 1017.86 1018.10 1018.30 1018.46 1018.55 1018.59 1018.55 1018.46
1012.02 1012.04 1012.00 1011.89 1011.69 1011.41 1011.05 1010.61 1010.13 1009.65 1009.19 1008.81 1008.51 1008.31 1008.22 1008.22 1008.29 1008.43 1008.63 1008.87 1009.17 1009.53 1009.95 1010.44 1010.97 1011.54 1012.10 1012.64 1013.13 1013.56 1013.94 1014.27 1014.58 1014.88 1015.19 1015.52 1015.87 1016.23 1016.60 1016.96 1017.29 1017.58 1017.83 1018.01 1018.14 1018.19 1018.18 1018.11 1018.01
1011.98 1011.97 1011.90 1011.76 1011.54 1011.23 1010.85 1010.41 1009.92 1009.43 1008.98 1008.60 1008.31 1008.13 1008.05 1008.06 1008.14 1008.28 1008.46 1008.68 1008.94 1009.27 1009.65 1010.10 1010.61 1011.16 1011.72 1012.26 1012.76 1013.20 1013.58 1013.90 1014.19 1014.47 1014.77 1015.09 1015.44 1015.82 1016.21 1016.60 1016.96 1017.27 1017.53 1017.71 1017.82 1017.86 1017.83 1017.76 1017.66
1011.98 1011.93 1011.82 1011.65 1011.40 1011.07 1010.66 1010.20 1009.70 1009.21 1008.76 1008.38 1008.11 1007.94 1007.88 1007.90 1007.99 1008.13 1008.29 1008.50 1008.74 1009.03 1009.39 1009.82 1010.33 1010.87 1011.44 1011.99 1012.49 1012.94 1013.32 1013.63 1013.90 1014.15 1014.42 1014.72 1015.06 1015.44 1015.85 1016.26 1016.65 1016.99 1017.27 1017.47 1017.59 1017.64 1017.62 1017.57 1017.51
1011.97 1011.90 1011.76 1011.55 1011.27 1010.92 1010.49 1010.02 1009.52 1009.03 1008.59 1008.23 1007.98 1007.84 1007.80 1007.85 1007.95 1008.09 1008.25 1008.44 1008.66 1008.93 1009.28 1009.70 1010.20 1010.75 1011.33 1011.89 1012.40 1012.85 1013.21 1013.50 1013.75 1013.97 1014.20 1014.47 1014.80 1015.17 1015.58 1016.01 1016.42 1016.79 1017.10 1017.33 1017.49 1017.57 1017.59 1017.59 1017.58
1011.96 1011.85 1011.69 1011.46 1011.16 1010.80 1010.37 1009.90 1009.42 1008.95 1008.55 1008.23 1008.02 1007.92 1007.92 1007.99 1008.11 1008.25 1008.41 1008.59 1008.80 1009.06 1009.39 1009.80 1010.29 1010.85 1011.42 1011.98 1012.49 1012.93 1013.28 1013.54 1013.75 1013.94 1014.14 1014.38 1014.68 1015.04 1015.45 1015.88 1016.31 1016.71 1017.05 1017.31 1017.51 1017.64 1017.72 1017.77 1017.82
1011.91 1011.78 1011.60 1011.37 1011.07 1010.72 1010.32 1009.88 1009.44 1009.04 1008.69 1008.44 1008.30 1008.25 1008.29 1008.40 1008.53 1008.68 1008.83 1009.00 1009.19 1009.43 1009.74 1010.13 1010.60 1011.14 1011.70 1012.24 1012.73 1013.15 1013.48 1013.73 1013.91 1014.07 1014.24 1014.45 1014.73 1015.07 1015.47 1015.90 1016.34 1016.75 1017.11 1017.41 1017.64 1017.81 1017.95 1018.06 1018.18
1011.82 1011.68 1011.49 1011.27 1011.00 1010.69 1010.34 1009.97 1009.62 1009.30 1009.06 1008.90 1008.83 1008.86 1008.95 1009.09 1009.24 1009.39 1009.52 1009.66 1009.82 1010.02 1010.28 1010.63 1011.07 1011.56 1012.08 1012.60 1013.07 1013.47 1013.78 1014.01 1014.18 1014.33 1014.49 1014.69 1014.95 1015.28 1015.67 1016.09 1016.52 1016.92 1017.28 1017.59 1017.85 1018.05 1018.22 1018.38 1018.55
1011.68 1011.53 1011.36 1011.16 1010.94 1010.70 1010.44 1010.18 1009.94 1009.75 1009.62 1009.58 1009.61 1009.72 1009.86 1010.03 1010.19 1010.32 1010.42 1010.51 1010.60 1010.74 1010.94 1011.22 1011.58 1012.02 1012.49 1012.97 1013.41 1013.79 1014.10 1014.34 1014.52 1014.69 1014.87 1015.08 1015.35 1015.67 1016.04 1016.44 1016.84 1017.22 1017.57 1017.86 1018.11 1018.32 1018.51 1018.69 1018.88
1011.50 1011.35 1011.21 1011.05 1010.90 1010.75 1010.61 1010.48 1010.38 1010.33 1010.34 1010.43 1010.57 1010.75 1010.95 1011.14 1011.29 1011.38 1011.43 1011.44 1011.45 1011.49 1011.60 1011.78 1012.06 1012.41 1012.82 1013.25 1013.67 1014.05 1014.38 1014.66 1014.90 1015.12 1015.34 1015.60 1015.89 1016.22 1016.58 1016.95 1017.31 1017.65 1017.95 1018.21 1018.43 1018.62 1018.79 1018.97 1019.15
1011.29 1011.15 1011.04 1010.94 1010.87 1010.83 1010.80 1010.82 1010.87 1010.97 1011.13 1011.35 1011.60 1011.86 1012.10 1012.30 1012.43 1012.47 1012.45 1012.37 1012.27 1012.19 1012.18 1012.24 1012.41 1012.68 1013.02 1013.41 1013.82 1014.22 1014.61 1014.96 1015.28 1015.59 1015.90 1016.22 1016.55 1016.90 1017.26 1017.60 1017.92 1018.20 1018.45 1018.65 1018.82 1018.96 1019.10 1019.24 1019.40
1011.04 1010.93 1010.85 1010.82 1010.83 1010.89 1010.99 1011.14 1011.34 1011.59 1011.89 1012.23 1012.58 1012.91 1013.20 1013.41 1013.51 1013.50 1013.39 1013.21 1013.00 1012.79 1012.65 1012.59 1012.65 1012.82 1013.10 1013.46 1013.88 1014.33 1014.79 1015.24 1015.68 1016.11 1016.52 1016.92 1017.32 1017.69 1018.04 1018.36 1018.63 1018.86 1019.04 1019.18 1019.29 1019.38 1019.47 1019.56 1019.66
1010.78 1010.69 1010.66 1010.68 1010.76 1010.91 1011.12 1011.38 1011.71 1012.10 1012.52 1012.98 1013.42 1013.83 1014.15 1014.37 1014.46 1014.41 1014.23 1013.96 1013.64 1013.32 1013.05 1012.87 1012.83 1012.92 1013.14 1013.49 1013.93 1014.45 1015.00 1015.57 1016.13 1016.68 1017.20 1017.69 1018.14 1018.54 1018.89 1019.17 1019.41 1019.58 1019.71 1019.79 1019.85 1019.89 1019.93 1019.97 1020.02
1010.50 1010.44 1010.44 1010.51 1010.65 1010.86 1011.15 1011.51 1011.95 1012.44 1012.98 1013.53 1014.07 1014.55 1014.93 1015.17 1015.27 1015.19 1014.98 1014.65 1014.25 1013.84 1013.48 1013.21 1013.08 1013.11 1013.30 1013.64 1014.11 1014.69 1015.33 1016.00 1016.68 1017.34 1017.95 1018.51 1018.99 1019.41 1019.74 1020.00 1020.19 1020.32 1020.40 1020.45 1020.47 1020.48 1020.49 1020.49 1020.49
1010.24 1010.20 1010.23 1010.32 1010.49 1010.75 1011.09 1011.52 1012.03 1012.61 1013.24 1013.89 1014.51 1015.07 1015.52 1015.82 1015.96 1015.91 1015.69 1015.35 1014.92 1014.47 1014.05 1013.73 1013.55 1013.54 1013.70 1014.05 1014.54 1015.16 1015.87 1016.62 1017.37 1018.10 1018.77 1019.36 1019.85 1020.25 1020.56 1020.78 1020.92 1021.02 1021.07 1021.10 1021.12 1021.12 1021.11 1021.10 1021.08
1010.02 1009.99 1010.02 1010.12 1010.30 1010.58 1010.95 1011.42 1011.98 1012.63 1013.34 1014.07 1014.79 1015.44 1015.98 1016.37 1016.58 1016.60 1016.44 1016.14 1015.73 1015.29 1014.87 1014.53 1014.34 1014.31 1014.46 1014.80 1015.31 1015.95 1016.68 1017.46 1018.24 1018.98 1019.65 1020.23 1020.69 1021.05 1021.30 1021.47 1021.58 1021.64 1021.68 1021.71 1021.73 1021.75 1021.76 1021.75 1021.73
1009.87 1009.83 1009.85 1009.94 1010.12 1010.39 1010.77 1011.26 1011.86 1012.56 1013.34 1014.16 1014.97 1015.72 1016.37 1016.87 1017.19 1017.32 1017.26 1017.05 1016.72 1016.34 1015.97 1015.66 1015.48 1015.45 1015.60 1015.93 1016.43 1017.05 1017.77 1018.53 1019.28 1019.97 1020.59 1021.10 1021.49 1021.78 1021.96 1022.07 1022.13 1022.17 1022.20 1022.23 1022.28 1022.33 1022.37 1022.39 1022.38
1009.81 1009.76 1009.76 1009.82 1009.97 1010.23 1010.60 1011.11 1011.74 1012.49 1013.33 1014.23 1015.13 1015.99 1016.76 1017.38 1017.83 1018.09 1018.16 1018.07 1017.86 1017.58 1017.29 1017.05 1016.90 1016.90 1017.05 1017.37 1017.82 1018.40 1019.06 1019.74 1020.41 1021.02 1021.54 1021.96 1022.26 1022.45 1022.55 1022.60 1022.61 1022.62 1022.64 1022.68 1022.75 1022.83 1022.90 1022.96 1022.97
1009.87 1009.79 1009.76 1009.79 1009.91 1010.15 1010.52 1011.04 1011.70 1012.49 1013.40 1014.37 1015.35 1016.31 1017.18 1017.92 1018.49 1018.89 1019.09 1019.14 1019.06 1018.91 1018.72 1018.56 1018.48 1018.50 1018.66 1018.94 1019.35 1019.86 1020.42 1021.01 1021.56 1022.06 1022.46 1022.77 1022.96 1023.06 1023.09 1023.08 1023.05 1023.03 1023.04 1023.09 1023.17 1023.27 1023.37 1023.44 1023.48
1010.05 1009.94 1009.87 1009.87 1009.96 1010.19 1010.57 1011.11 1011.80 1012.64 1013.60 1014.63 1015.68 1016.71 1017.66 1018.49 1019.16 1019.65 1019.98 1020.15 1020.20 1020.16 1020.08 1020.01 1019.99 1020.05 1020.21 1020.46 1020.82 1021.24 1021.70 1022.17 1022.61 1022.99 1023.29 1023.49 1023.60 1023.64 1023.61 1023.56 1023.50 1023.47 1023.46 1023.50 1023.58 1023.67 1023.77 1023.85 1023.89
1010.33 1010.19 1010.09 1010.06 1010.15 1010.38 1010.77 1011.34 1012.07 1012.96 1013.97 1015.04 1016.13 1017.20 1018.18 1019.05 1019.77 1020.33 1020.73 1020.99 1021.14 1021.20 1021.22 1021.22 1021.26 1021.36 1021.51 1021.74 1022.04 1022.38 1022.75 1023.12 1023.45 1023.74 1023.95 1024.09 1024.16 1024.17 1024.13 1024.06 1024.00 1023.96 1023.94 1023.96 1024.01 1024.08 1024.15 1024.21 1024.23
Thickness
5782 5788 5792 5790 5780 5775 5776 5787 5790 5790 5794 5803 5804 5802 5799 5798 5793 5788 5809 5817 5814 5809 5800 5791 5787 5783 5781 5779 5777 5774 5772 5769 5767 5764 5762 5760 5758 5756 5755 5754 5753 5752 5751 5750 5749 5748 5747 5746 5745
5783 5787 5785 5782 5769 5764 5776 5788 5785 5789 5796 5802 5802 5799 5796 5800 5807 5807 5810 5812 5810 5804 5796 5791 5784 5781 5778 5775 5773 5771 5769 5766 5763 5761 5759 5757 5755 5753 5752 5751 5750 5749 5748 5747 5746 5745 5744 5743 5742
5781 5783 5778 5773 5766 5769 5777 5785 5787 5793 5798 5797 5796 5799 5797 5799 5805 5808 5810 5809 5806 5800 5794 5787 5781 5778 5775 5772 5770 5768 5765 5762 5760 5758 5755 5753 5752 5750 5749 5748 5747 5746 5745 5744 5743 5742 5741 5739 5738
5777 5774 5772 5765 5764 5778 5782 5786 5788 5787 5793 5796 5795 5792 5801 5807 5808 5811 5809 5806 5801 5796 5791 5783 5778 5774 5771 5769 5767 5764 5762 5759 5757 5755 5752 5750 5748 5747 5746 5745 5744 5743 5741 5741 5740 5738 5737 5736 5735
5774 5768 5757 5757 5766 5779 5783 5785 5786 5783 5785 5791 5791 5789 5795 5806 5810 5809 5805 5802 5797 5793 5788 5780 5773 5771 5768 5765 5763 5761 5758 5756 5753 5751 5749 5747 5745 5744 5743 5742 5740 5740 5738 5737 5737 5736 5734 5733 5733
5762 5761 5751 5752 5763 5772 5778 5782 5781 5781 5786 5792 5790 5788 5795 5804 5803 5802 5802 5798 5796 5791 5785 5776 5768 5765 5763 5761 5759 5757 5755 5752 5750 5748 5746 5744 5742 5741 5740 5739 5737 5736 5735 5734 5733 5732 5731 5730 5730
5755 5752 5751 5755 5757 5762 5770 5778 5776 5777 5780 5788 5794 5786 5792 5796 5799 5800 5798 5795 5793 5789 5783 5774 5767 5762 5758 5757 5755 5753 5751 5748 5746 5744 5742 5740 5738 5738 5737 5736 5734 5733 5732 5731 5730 5729 5728 5727 5727
5759 5752 5746 5749 5748 5754 5767 5772 5776 5775 5778 5792 5792 5783 5786 5791 5795 5795 5792 5790 5787 5784 5780 5774 5768 5763 5758 5754 5751 5748 5747 5744 5742 5741 5739 5737 5735 5734 5733 5733 5731 5730 5730 5729 5728 5726 5726 5725 5725
5751 5741 5740 5745 5745 5752 5762 5763 5771 5778 5777 5781 5787 5787 5791 5792 5790 5785 5782 5780 5779 5777 5776 5773 5768 5763 5759 5756 5749 5744 5742 5740 5738 5737 5735 5734 5735 5735 5732 5732 5729 5728 5727 5726 5725 5724 5723 5723 5723
5743 5736 5740 5746 5750 5751 5756 5757 5761 5766 5767 5771 5777 5782 5786 5784 5781 5778 5775 5773 5771 5770 5772 5771 5767 5762 5759 5755 5748 5744 5741 5739 5738 5738 5735 5735 5735 5734 5733 5729 5726 5725 5724 5723 5723 5723 5722 5722 5726
5739 5736 5739 5743 5747 5747 5748 5752 5758 5755 5756 5764 5767 5773 5778 5776 5775 5774 5772 5771 5769 5768 5766 5767 5763 5760 5757 5753 5748 5745 5743 5739 5738 5737 5735 5734 5733 5732 5730 5728 5725 5724 5723 5725 5723 5723 5725 5726 5726
5733 5733 5735 5739 5743 5742 5743 5747 5749 5750 5753 5765 5769 5772 5772 5770 5769 5769 5768 5766 5765 5763 5762 5761 5759 5756 5753 5750 5747 5743 5741 5738 5737 5735 5733 5732 5731 5729 5730 5727 5727 5725 5725 5725 5726 5725 5725 5724 5724
5726 5729 5733 5737 5739 5740 5739 5740 5740 5744 5753 5760 5763 5764 5764 5765 5765 5764 5764 5762 5761 5757 5756 5756 5753 5750 5747 5744 5743 5741 5738 5737 5734 5732 5731 5730 5728 5728 5727 5726 5724 5724 5723 5722 5722 5723 5722 5722 5722
5727 5727 5728 5732 5734 5736 5733 5736 5736 5737 5746 5749 5752 5754 5757 5757 5757 5757 5755 5754 5754 5752 5750 5751 5748 5745 5742 5739 5738 5737 5736 5733 5732 5728 5727 5725 5724 5723 5723 5722 5721 5721 5721 5720 5720 5720 5719 5718 5718
5723 5719 5723 5727 5729 5731 5729 5721 5724 5732 5738 5739 5741 5744 5746 5749 5750 5748 5748 5748 5748 5747 5746 5745 5744 5741 5738 5736 5734 5733 5731 5728 5727 5725 5722 5720 5720 5719 5718 5718 5718 5717 5716 5715 5715 5715 5715 5714 5714
5718 5715 5713 5719 5723 5725 5718 5712 5719 5727 5728 5727 5731 5734 5735 5736 5738 5738 5740 5740 5741 5740 5739 5739 5738 5736 5733 5731 5729 5727 5725 5723 5721 5719 5718 5715 5716 5715 5714 5714 5714 5713 5712 5712 5712 5712 5711 5710 5709
5710 5706 5705 5709 5717 5718 5714 5707 5712 5719 5719 5717 5719 5723 5724 5724 5725 5727 5729 5731 5732 5732 5731 5731 5730 5729 5727 5725 5723 5721 5719 5716 5715 5714 5712 5711 5710 5711 5710 5709 5709 5709 5708 5708 5709 5708 5707 5705 5703
5699 5701 5699 5700 5708 5708 5703 5699 5704 5709 5709 5708 5709 5711 5712 5711 5712 5716 5719 5722 5723 5724 5724 5723 5723 5722 5721 5719 5717 5714 5711 5708 5707 5707 5706 5706 5704 5704 5703 5703 5703 5704 5705 5703 5701 5700 5700 5699 5698
5699 5695 5692 5697 5704 5699 5694 5692 5695 5700 5700 5699 5699 5700 5701 5700 5703 5706 5708 5711 5713 5714 5715 5715 5714 5715 5713 5711 5709 5706 5703 5701 5700 5699 5699 5698 5698 5698 5696 5697 5697 5698 5698 5697 5695 5694 5692 5691 5691
5694 5690 5691 5695 5697 5692 5687 5686 5689 5690 5688 5688 5687 5687 5689 5690 5691 5693 5697 5701 5703 5703 5704 5705 5706 5707 5706 5705 5702 5700 5697 5694 5692 5690 5690 5690 5690 5689 5689 5689 5690 5690 5690 5689 5687 5687 5685 5683 5684
5691 5690 5689 5686 5689 5690 5683 5677 5681 5682 5682 5679 5679 5679 5680 5679 5680 5682 5685 5688 5692 5693 5694 5696 5697 5699 5699 5698 5696 5693 5689 5686 5682 5680 5680 5680 5680 5679 5679 5680 5680 5682 5683 5681 5680 5680 5678 5677 5676
5688 5696 5690 5685 5681 5681 5683 5672 5680 5679 5674 5671 5669 5669 5668 5669 5670 5673 5675 5676 5679 5682 5685 5687 5689 5690 5690 5691 5691 5687 5683 5678 5675 5672 5670 5668 5668 5669 5669 5669 5670 5672 5673 5672 5672 5672 5671 5670 5669
5692 5694 5689 5686 5682 5680 5682 5675 5679 5677 5669 5666 5662 5659 5658 5659 5660 5662 5664 5666 5668 5672 5675 5677 5679 5680 5681 5682 5682 5679 5676 5671 5667 5663 5659 5657 5657 5657 5658 5658 5659 5660 5661 5661 5661 5661 5660 5661 5661
5692 5688 5686 5686 5683 5667 5679 5673 5673 5673 5669 5663 5655 5650 5649 5650 5651 5652 5653 5656 5658 5661 5664 5667 5668 5669 5670 5671 5671 5669 5666 5662 5657 5651 5649 5646 5645 5645 5645 5647 5648 5648 5649 5649 5649 5649 5648 5647 5647
5686 5677 5669 5668 5669 5672 5682 5671 5666 5668 5668 5661 5651 5644 5642 5642 5642 5641 5642 5645 5647 5649 5652 5655 5656 5657 5658 5659 5658 5657 5654 5651 5647 5642 5639 5636 5635 5634 5633 5634 5634 5635 5635 5635 5635 5636 5635 5634 5634
5683 5677 5663 5656 5663 5672 5674 5663 5658 5658 5657 5652 5645 5638 5635 5632 5632 5631 5631 5633 5636 5638 5640 5642 5643 5644 5644 5645 5644 5643 5641 5639 5634 5631 5628 5625 5623 5621 5621 5621 5621 5621 5621 5622 5622 5623 5622 5621 5621
5679 5678 5683 5670 5668 5662 5665 5659 5649 5648 5643 5639 5633 5630 5626 5623 5621 5621 5621 5622 5624 5626 5627 5629 5631 5631 5631 5631 5630 5629 5627 5624 5621 5618 5616 5613 5610 5610 5609 5609 5609 5608 5608 5608 5610 5609 5609 5608 5609
5682 5680 5671 5663 5651 5652 5660 5657 5652 5641 5634 5630 5626 5622 5617 5613 5611 5610 5610 5611 5612 5613 5615 5616 5617 5617 5617 5617 5618 5616 5613 5610 5608 5606 5603 5601 5599 5599 5598 5597 5597 5596 5596 5596 5598 5598 5595 5594 5593
5672 5670 5668 5669 5666 5653 5647 5647 5652 5646 5638 5628 5621 5614 5609 5605 5602 5601 5600 5601 5601 5602 5603 5603 5604 5604 5604 5603 5602 5601 5599 5598 5596 5594 5592 5590 5588 5588 5587 5586 5585 5585 5584 5584 5585 5585 5583 5582 5581
5674 5671 5666 5654 5656 5658 5652 5641 5645 5644 5636 5626 5615 5605 5600 5596 5594 5592 5591 5591 5590 5590 5590 5590 5590 5590 5590 5589 5588 5586 5585 5585 5584 5582 5579 5577 5577 5577 5576 5574 5573 5573 5573 5572 5573 5573 5572 5571 5569